• In Slovakia
  • List of Countries
  • For 7 days
  • Water Temperature
  • Satellite Maps
  • Weather Map
  • Weather Widgets
  • user-avatar
    Login

    Hourly Weather Perth

    Today, 20 November, Monday

    Time Temperature Precipitation Wind Pressure Humidity
    00:00 +16°C° 0 mm 3 mps 758 mmHg 81%
    01:00 +16°C° 0 mm 3 mps 758 mmHg 82%
    02:00 +16°C° 0 mm 3 mps 758 mmHg 82%
    03:00 +14°C° 0 mm 3 mps 758 mmHg 82%
    04:00 +15°C° 0 mm 2 mps 758 mmHg 82%
    05:00 +15°C° 0 mm 2 mps 758 mmHg 83%
    06:00 +17°C° 0 mm 3 mps 759 mmHg 75%
    07:00 +18°C° 0 mm 3 mps 759 mmHg 67%
    08:00 +20°C° 0 mm 2 mps 759 mmHg 57%
    09:00 +21°C° 0 mm 3 mps 759 mmHg 53%
    10:00 +22°C° 0 mm 3 mps 759 mmHg 48%
    11:00 +25°C° 0 mm 4 mps 759 mmHg 44%
    12:00 +25°C° 0 mm 4 mps 758 mmHg 43%
    13:00 +26°C° 0 mm 4 mps 758 mmHg 41%
    14:00 +26°C° 0 mm 4 mps 758 mmHg 40%
    15:00 +25°C° 0 mm 5 mps 758 mmHg 44%
    16:00 +25°C° 0 mm 5 mps 758 mmHg 47%
    17:00 +23°C° 0 mm 5 mps 758 mmHg 50%
    18:00 +22°C° 0 mm 5 mps 758 mmHg 58%
    19:00 +20°C° 0 mm 4 mps 759 mmHg 66%
    20:00 +19°C° 0 mm 4 mps 759 mmHg 71%
    21:00 +18°C° 0 mm 4 mps 759 mmHg 75%
    22:00 +18°C° 0 mm 4 mps 760 mmHg 80%
    23:00 +18°C° 0 mm 4 mps 760 mmHg 84%

    Tomorrow, 21 November, Tuesday

    Time Temperature Precipitation Wind Pressure Humidity
    00:00 +17°C° 0 mm 4 mps 760 mmHg 85%
    01:00 +17°C° 0 mm 4 mps 760 mmHg 87%
    02:00 +15°C° 0 mm 4 mps 760 mmHg 88%
    03:00 +15°C° 0 mm 5 mps 761 mmHg 88%
    04:00 +15°C° 0 mm 5 mps 761 mmHg 88%
    05:00 +14°C° 0 mm 5 mps 761 mmHg 87%
    06:00 +16°C° 0 mm 5 mps 762 mmHg 78%
    07:00 +17°C° 0 mm 5 mps 762 mmHg 69%
    08:00 +19°C° 0 mm 5 mps 762 mmHg 59%
    09:00 +21°C° 0 mm 5 mps 762 mmHg 51%
    10:00 +23°C° 0 mm 5 mps 762 mmHg 43%
    11:00 +25°C° 0 mm 4 mps 762 mmHg 35%
    12:00 +26°C° 0 mm 5 mps 761 mmHg 32%
    13:00 +27°C° 0 mm 5 mps 761 mmHg 30%
    14:00 +28°C° 0 mm 5 mps 761 mmHg 27%
    15:00 +28°C° 0 mm 6 mps 761 mmHg 27%
    16:00 +28°C° 0 mm 6 mps 760 mmHg 27%
    17:00 +27°C° 0 mm 6 mps 760 mmHg 28%
    18:00 +26°C° 0 mm 6 mps 761 mmHg 31%
    19:00 +23°C° 0 mm 5 mps 761 mmHg 35%
    20:00 +21°C° 0 mm 5 mps 761 mmHg 38%
    21:00 +21°C° 0 mm 5 mps 762 mmHg 39%
    22:00 +20°C° 0 mm 5 mps 762 mmHg 40%
    23:00 +20°C° 0 mm 6 mps 763 mmHg 40%

    Day after tomorrow, 22 November, Wednesday

    Time Temperature Precipitation Wind Pressure Humidity
    00:00 +19°C° 0 mm 6 mps 763 mmHg 44%
    01:00 +17°C° 0 mm 6 mps 763 mmHg 48%
    02:00 +16°C° 0 mm 7 mps 763 mmHg 51%
    03:00 +16°C° 0 mm 6 mps 763 mmHg 51%
    04:00 +15°C° 0 mm 6 mps 763 mmHg 51%
    05:00 +14°C° 0 mm 6 mps 763 mmHg 51%
    06:00 +15°C° 0 mm 6 mps 764 mmHg 47%
    07:00 +17°C° 0 mm 6 mps 764 mmHg 43%
    08:00 +19°C° 0 mm 6 mps 764 mmHg 38%
    09:00 +21°C° 0 mm 5 mps 764 mmHg 33%
    10:00 +23°C° 0 mm 5 mps 763 mmHg 28%
    11:00 +26°C° 0 mm 4 mps 763 mmHg 23%
    12:00 +28°C° 0 mm 4 mps 762 mmHg 21%
    13:00 +29°C° 0 mm 4 mps 761 mmHg 19%
    14:00 +32°C° 0 mm 4 mps 761 mmHg 16%
    15:00 +30°C° 0 mm 4 mps 760 mmHg 17%
    16:00 +30°C° 0 mm 5 mps 760 mmHg 18%
    17:00 +30°C° 0 mm 5 mps 760 mmHg 19%
    18:00 +28°C° 0 mm 5 mps 760 mmHg 24%
    19:00 +26°C° 0 mm 4 mps 760 mmHg 29%
    20:00 +22°C° 0 mm 4 mps 761 mmHg 33%
    21:00 +22°C° 0 mm 4 mps 761 mmHg 32%
    22:00 +22°C° 0 mm 4 mps 761 mmHg 31%
    23:00 +21°C° 0 mm 4 mps 761 mmHg 30%

    23 November, Thursday

    Time Temperature Precipitation Wind Pressure Humidity
    00:00 +21°C° 0 mm 5 mps 761 mmHg 36%
    01:00 +20°C° 0 mm 5 mps 761 mmHg 41%
    02:00 +20°C° 0 mm 6 mps 761 mmHg 47%
    03:00 +19°C° 0 mm 6 mps 761 mmHg 48%
    04:00 +17°C° 0 mm 6 mps 761 mmHg 49%
    05:00 +17°C° 0 mm 6 mps 761 mmHg 51%
    06:00 +19°C° 0 mm 6 mps 761 mmHg 47%
    07:00 +21°C° 0 mm 6 mps 761 mmHg 43%
    08:00 +22°C° 0 mm 6 mps 762 mmHg 40%
    09:00 +26°C° 0 mm 5 mps 761 mmHg 34%
    10:00 +28°C° 0 mm 4 mps 761 mmHg 28%
    11:00 +31°C° 0 mm 3 mps 761 mmHg 23%
    12:00 +33°C° 0 mm 3 mps 760 mmHg 21%
    13:00 +34°C° 0 mm 3 mps 759 mmHg 19%
    14:00 +35°C° 0 mm 3 mps 758 mmHg 17%
    15:00 +35°C° 0 mm 4 mps 758 mmHg 18%
    16:00 +34°C° 0 mm 4 mps 758 mmHg 19%
    17:00 +34°C° 0 mm 4 mps 757 mmHg 20%
    18:00 +30°C° 0 mm 4 mps 758 mmHg 25%
    19:00 +28°C° 0 mm 4 mps 758 mmHg 29%
    20:00 +26°C° 0 mm 4 mps 758 mmHg 34%
    21:00 +25°C° 0 mm 4 mps 758 mmHg 34%
    22:00 +24°C° 0 mm 3 mps 758 mmHg 33%
    23:00 +22°C° 0 mm 3 mps 758 mmHg 33%

    24 November, Friday

    Time Temperature Precipitation Wind Pressure Humidity
    00:00 +22°C° 0 mm 3 mps 758 mmHg 31%
    01:00 +22°C° 0 mm 4 mps 757 mmHg 28%
    02:00 +22°C° 0 mm 4 mps 757 mmHg 26%
    03:00 +22°C° 0 mm 4 mps 757 mmHg 28%
    04:00 +21°C° 0 mm 4 mps 757 mmHg 30%
    05:00 +21°C° 0 mm 4 mps 757 mmHg 32%
    06:00 +23°C° 0 mm 4 mps 757 mmHg 29%
    07:00 +26°C° 0 mm 4 mps 757 mmHg 26%
    08:00 +28°C° 0 mm 4 mps 757 mmHg 23%
    09:00 +30°C° 0 mm 3 mps 757 mmHg 20%
    10:00 +34°C° 0 mm 3 mps 757 mmHg 17%
    11:00 +36°C° 0 mm 3 mps 757 mmHg 15%
    12:00 +37°C° 0 mm 3 mps 756 mmHg 15%
    13:00 +37°C° 0 mm 4 mps 755 mmHg 15%
    14:00 +37°C° 0 mm 4 mps 755 mmHg 15%
    15:00 +36°C° 0 mm 4 mps 755 mmHg 17%
    16:00 +35°C° 0 mm 5 mps 754 mmHg 18%
    17:00 +34°C° 0 mm 5 mps 754 mmHg 20%
    18:00 +32°C° 0 mm 5 mps 755 mmHg 25%
    19:00 +29°C° 0 mm 5 mps 755 mmHg 30%
    20:00 +26°C° 0 mm 4 mps 755 mmHg 35%
    21:00 +26°C° 0 mm 4 mps 755 mmHg 36%
    22:00 +25°C° 0 mm 4 mps 755 mmHg 37%
    23:00 +25°C° 0 mm 5 mps 755 mmHg 37%

    25 November, Saturday

    Time Temperature Precipitation Wind Pressure Humidity
    00:00 +23°C° 0 mm 4 mps 755 mmHg 41%
    01:00 +23°C° 0 mm 4 mps 755 mmHg 45%
    02:00 +22°C° 0 mm 4 mps 754 mmHg 49%
    03:00 +21°C° 0 mm 4 mps 755 mmHg 51%
    04:00 +21°C° 0 mm 4 mps 755 mmHg 54%
    05:00 +20°C° 0 mm 4 mps 755 mmHg 56%
    06:00 +22°C° 0 mm 4 mps 755 mmHg 53%
    07:00 +23°C° 0 mm 5 mps 756 mmHg 49%
    08:00 +25°C° 0 mm 5 mps 756 mmHg 46%
    09:00 +27°C° 0 mm 5 mps 756 mmHg 41%
    10:00 +29°C° 0 mm 5 mps 755 mmHg 36%
    11:00 +33°C° 0 mm 5 mps 755 mmHg 31%
    12:00 +34°C° 0 mm 6 mps 754 mmHg 29%
    13:00 +34°C° 0 mm 6 mps 754 mmHg 27%
    14:00 +35°C° 0 mm 6 mps 753 mmHg 26%
    15:00 +35°C° 0 mm 7 mps 753 mmHg 27%
    16:00 +34°C° 0 mm 7 mps 753 mmHg 29%
    17:00 +33°C° 0 mm 8 mps 753 mmHg 31%
    18:00 +32°C° 0 mm 8 mps 754 mmHg 35%
    19:00 +29°C° 0 mm 8 mps 754 mmHg 39%
    20:00 +27°C° 0 mm 8 mps 755 mmHg 42%
    21:00 +26°C° 0 mm 7 mps 755 mmHg 43%
    22:00 +24°C° 0 mm 7 mps 756 mmHg 44%
    23:00 +23°C° 0 mm 7 mps 756 mmHg 45%
    Show more